Stations météo

réclame
Mon MeteoGroup
Oostende Airport, Belgique (6407): Température de l'air & dewpoint: 19.02.2018 22:00:00 - 25.02.2018 22:00:00 (CET)Oostende Airport, Belgique (6407): Vitesse du vent & gusts: 19.02.2018 22:00:00 - 25.02.2018 22:00:00 (CET)Oostende Airport, Belgique (6407): Direction du vent: 19.02.2018 22:00:00 - 25.02.2018 22:00:00 (CET)Oostende Airport, Belgique (6407): reduced air pressure: 19.02.2018 22:00:00 - 25.02.2018 22:00:00 (CET)Oostende Airport, Belgique (6407): visibility: 19.02.2018 22:00:00 - 25.02.2018 22:00:00 (CET)
Date & Time tt [°C] td [°C] ff [km/h] ff [knt] fx [km/h] fx [knt] dd ppp [hPa] vv [km]
25.02.2018 22:00:00 -1,9 -10,8 29 16 - - ENE 1029,3 10
25.02.2018 21:00:00 -1,6 -10,3 21 11 32 18 ENE 1029,2 10
25.02.2018 20:00:00 -1,6 -11,5 22 12 39 21 ENE 1028,7 10
25.02.2018 19:00:00 -0,6 -12,3 24 13 - - ENE 1028,7 10
25.02.2018 18:00:00 0,1 -10,7 26 14 39 21 ENE 1028,4 10
25.02.2018 17:00:00 0,7 -10,4 26 14 40 21 NE 1028,4 10
25.02.2018 16:00:00 1,3 -12,8 29 16 - - ENE 1028,4 10
25.02.2018 15:00:00 1,2 -12,7 29 16 39 21 ENE 1028,4 10
25.02.2018 14:00:00 1,3 -11,0 28 15 39 21 ENE 1028,6 10
25.02.2018 13:00:00 0,7 -11,1 26 14 - - ENE 1028,8 10
25.02.2018 12:00:00 -0,3 -12,0 24 13 35 19 E 1028,9 10
25.02.2018 11:00:00 -1,0 -11,0 26 14 42 23 E 1028,8 10
25.02.2018 10:00:00 -2,1 -10,4 28 15 - - E 1028,7 10
25.02.2018 09:00:00 -3,1 -10,2 29 16 40 21 E 1028,1 10
25.02.2018 08:00:00 -3,6 -10,3 28 15 40 21 ENE 1027,9 10
25.02.2018 07:00:00 -3,2 -10,2 26 14 - - E 1027,2 10
25.02.2018 06:00:00 -2,8 -9,8 28 15 39 21 ENE 1026,9 10
25.02.2018 05:00:00 -2,7 -9,4 26 14 39 21 ENE 1026,5 10
25.02.2018 04:00:00 -2,3 -8,9 26 14 - - ENE 1026,2 10
25.02.2018 03:00:00 -2,0 -8,7 26 14 36 19 ENE 1026,2 10
25.02.2018 02:00:00 -1,7 -8,4 26 14 40 21 ENE 1025,8 10
25.02.2018 01:00:00 -1,1 -8,0 28 15 - - E 1026,0 10
25.02.2018 00:00:00 -0,8 -7,5 26 14 40 21 E 1025,7 10
24.02.2018 23:00:00 -0,4 -7,4 29 16 39 21 E 1025,3 10
24.02.2018 22:00:00 -0,2 -6,7 28 15 - - ENE 1024,8 10
24.02.2018 21:00:00 0,5 -5,7 29 16 42 23 ENE 1024,5 10
24.02.2018 20:00:00 0,7 -6,0 24 13 42 23 ENE 1024,1 10
24.02.2018 19:00:00 1,5 -6,2 34 18 - - ENE 1023,4 10
24.02.2018 18:00:00 2,5 -6,2 28 15 46 25 ENE 1022,8 10
24.02.2018 17:00:00 4,3 -7,9 35 19 50 27 ENE 1022,6 10
24.02.2018 16:00:00 4,8 -7,4 31 17 - - ENE 1022,5 10
24.02.2018 15:00:00 5,0 -8,2 29 16 46 25 ENE 1022,4 10
24.02.2018 14:00:00 4,2 -9,8 29 16 42 23 E 1022,5 10
24.02.2018 13:00:00 3,1 -9,5 28 15 - - E 1022,6 10
24.02.2018 12:00:00 1,6 -9,6 28 15 39 21 E 1022,9 10
24.02.2018 11:00:00 0,0 -10,5 28 15 40 21 E 1022,8 10
24.02.2018 10:00:00 -1,5 -9,3 26 14 - - E 1022,7 10
24.02.2018 09:00:00 -3,0 -9,5 22 12 29 16 E 1022,4 10
24.02.2018 08:00:00 -3,7 -8,3 21 11 31 17 E 1021,6 10
24.02.2018 07:00:00 -3,8 -8,0 18 10 - - ENE 1021,2 10
24.02.2018 06:00:00 -3,3 -8,5 22 12 32 18 E 1021,0 10
24.02.2018 05:00:00 -3,3 -7,8 18 10 32 18 ENE 1020,9 10
24.02.2018 04:00:00 -2,7 -7,5 18 10 - - E 1020,9 10
24.02.2018 03:00:00 -2,4 -7,3 18 10 32 18 E 1021,1 10
24.02.2018 02:00:00 -1,9 -6,7 21 11 35 19 E 1020,6 10
24.02.2018 01:00:00 -1,3 -6,5 25 14 - - E 1020,5 25
24.02.2018 00:00:00 -1,1 -6,6 26 14 35 19 ENE 1020,5 10
23.02.2018 23:00:00 -0,8 -6,2 22 12 29 16 ENE 1020,4 10
23.02.2018 22:00:00 -0,8 -5,8 18 10 - - ENE 1020,5 10
23.02.2018 21:00:00 -0,1 -5,1 21 11 29 16 ENE 1020,3 10
23.02.2018 20:00:00 0,3 -5,5 18 10 29 16 ENE 1020,4 25
23.02.2018 19:00:00 0,9 -6,4 22 12 - - ENE 1020,1 10
23.02.2018 18:00:00 1,4 -5,8 22 12 39 21 ENE 1020,0 10
23.02.2018 17:00:00 2,0 -5,4 29 16 42 23 ENE 1020,1 10
23.02.2018 16:00:00 2,4 -5,2 28 15 - - ENE 1020,3 10
23.02.2018 15:00:00 2,2 -5,5 34 18 42 23 ENE 1020,7 10
23.02.2018 14:00:00 2,1 -5,2 31 17 46 25 ENE 1021,1 10
23.02.2018 13:00:00 1,5 -5,6 34 18 - - ENE 1021,6 10
23.02.2018 12:00:00 1,2 -4,8 28 15 46 25 ENE 1022,1 10
23.02.2018 11:00:00 0,9 -5,2 28 15 40 21 E 1022,4 10
23.02.2018 10:00:00 -0,1 -4,3 21 11 - - ENE 1022,7 10
23.02.2018 09:00:00 -1,1 -4,4 18 10 25 14 ENE 1022,8 9
23.02.2018 08:00:00 -2,1 -4,8 16 9 22 12 ENE 1022,6 8
23.02.2018 07:00:00 -2,0 -4,7 16 9 - - ENE 1022,3 10
23.02.2018 06:00:00 -1,8 -4,7 16 9 29 16 ENE 1022,3 10
23.02.2018 05:00:00 -1,7 -4,7 18 10 22 12 ENE 1022,1 10
23.02.2018 04:00:00 -1,6 -4,5 14 8 - - ENE 1022,4 20
23.02.2018 03:00:00 -1,3 -4,7 16 9 29 16 ENE 1022,6 10
23.02.2018 02:00:00 -0,8 -4,9 21 11 32 18 ENE 1022,8 10
23.02.2018 01:00:00 -0,2 -4,9 21 11 - - ENE 1023,1 10
23.02.2018 00:00:00 0,1 -4,4 22 12 35 19 ENE 1023,2 10
22.02.2018 23:00:00 0,6 -4,0 28 15 40 21 ENE 1023,0 10
22.02.2018 22:00:00 1,2 -3,7 28 15 - - ENE 1022,9 10
22.02.2018 21:00:00 1,7 -3,4 28 15 39 21 ENE 1022,6 10
22.02.2018 20:00:00 2,3 -2,7 28 15 39 21 NE 1022,5 10
22.02.2018 19:00:00 2,5 -4,1 22 12 - - NE 1022,5 10
22.02.2018 18:00:00 3,3 -4,5 29 16 43 23 NE 1022,6 10
22.02.2018 17:00:00 3,6 -3,9 31 17 39 21 NE 1022,5 10
22.02.2018 16:00:00 4,0 -4,0 24 13 - - NNE - 10
22.02.2018 15:00:00 4,0 -4,4 26 14 36 19 ENE 1023,6 10
22.02.2018 14:00:00 3,9 -3,5 26 14 35 19 ENE 1024,1 10
22.02.2018 13:00:00 3,2 -4,0 22 12 - - ENE 1024,3 10
22.02.2018 12:00:00 2,3 -3,5 21 11 31 17 E 1024,5 10
22.02.2018 11:00:00 1,1 -4,1 22 12 32 18 ENE 1024,7 10
22.02.2018 10:00:00 -0,2 -4,3 21 11 - - ENE 1024,7 10
22.02.2018 09:00:00 -1,1 -4,6 18 10 29 16 ENE 1024,5 9
22.02.2018 08:00:00 -1,5 -4,8 18 10 25 14 ENE 1024,2 8
22.02.2018 07:00:00 -1,1 -4,6 21 11 - - ENE 1023,8 10
22.02.2018 06:00:00 -0,7 -4,4 18 10 29 16 ENE 1023,8 10
22.02.2018 05:00:00 -0,6 -4,4 16 9 25 14 NE 1023,7 10
22.02.2018 04:00:00 -0,6 -4,3 15 8 - - NE 1024,0 9
22.02.2018 03:00:00 -0,2 -3,9 15 8 25 14 NE 1024,5 9
22.02.2018 02:00:00 0,0 -3,2 15 8 22 12 ENE 1024,7 8
22.02.2018 01:00:00 0,2 -3,1 15 8 - - NE 1025,0 7
22.02.2018 00:00:00 0,4 -3,1 15 8 26 14 NE 1025,2 8
21.02.2018 23:00:00 0,9 -2,9 16 9 29 16 NE 1025,4 9
21.02.2018 22:00:00 1,9 -2,0 16 9 - - NE 1025,5 7
21.02.2018 21:00:00 2,1 -1,3 15 8 29 16 NE 1025,4 7
21.02.2018 20:00:00 2,5 -1,9 18 10 29 16 NE 1025,3 7
21.02.2018 19:00:00 2,7 -1,9 18 10 - - NE 1025,3 7
21.02.2018 18:00:00 3,0 -1,7 16 9 29 16 NNE 1025,2 6
21.02.2018 17:00:00 3,6 -1,4 18 10 29 16 NNE 1025,2 7
21.02.2018 16:00:00 4,0 -2,1 21 11 - - NNE 1025,5 9
21.02.2018 15:00:00 3,9 -2,3 22 12 29 16 NNE 1026,0 9
21.02.2018 14:00:00 3,8 -2,2 18 10 29 16 NNE 1026,7 8
21.02.2018 13:00:00 4,0 -1,6 13 7 - - NE 1027,1 8
21.02.2018 12:00:00 3,4 -1,8 15 8 25 14 ENE 1027,2 7
21.02.2018 11:00:00 2,4 -2,7 16 9 26 14 NE 1027,1 7
21.02.2018 10:00:00 1,6 -2,5 13 7 - - NE 1027,0 6
21.02.2018 09:00:00 0,8 -2,6 15 8 18 10 ENE 1026,3 5
21.02.2018 08:00:00 0,5 -2,9 11 6 18 10 NE 1026,1 6
21.02.2018 07:00:00 1,0 -2,8 11 6 - - NE 1026,0 7
21.02.2018 06:00:00 0,6 -2,3 11 6 15 8 NE 1025,8 7
21.02.2018 05:00:00 0,8 -2,3 11 6 15 8 NE 1025,8 7
21.02.2018 04:00:00 0,7 -2,4 11 6 - - NE 1025,5 7
21.02.2018 03:00:00 0,8 -1,9 13 7 18 10 NE 1025,1 7
21.02.2018 02:00:00 0,9 -1,8 13 7 22 12 NE 1025,0 7
21.02.2018 01:00:00 1,7 -1,4 16 9 - - ENE 1024,2 7
21.02.2018 00:00:00 2,1 -1,0 16 9 26 14 NE 1024,1 8
20.02.2018 23:00:00 2,9 -0,9 18 10 26 14 ENE 1023,1 9
20.02.2018 22:00:00 3,6 -0,2 18 10 - - NE 1022,7 10
20.02.2018 21:00:00 3,6 -0,2 16 9 22 12 NE 1022,1 10
20.02.2018 20:00:00 3,0 -0,7 13 7 22 12 NE 1021,2 10
20.02.2018 19:00:00 3,5 0,6 9 5 - - NE 1020,4 9
20.02.2018 18:00:00 3,4 -0,5 9 5 22 12 NE 1020,1 10
20.02.2018 17:00:00 4,1 1,4 15 8 18 10 NE 1019,6 8
20.02.2018 16:00:00 4,3 1,9 11 6 - - N 1019,2 3,0
20.02.2018 15:00:00 4,4 2,5 9 5 11 6 N 1019,1 3,4
20.02.2018 14:00:00 5,4 2,3 0 0 11 6 N 1019,3 4,0
20.02.2018 13:00:00 5,0 2,1 5 3 - - SE 1019,4 4,6
20.02.2018 12:00:00 4,6 2,0 5 3 11 6 SE 1019,3 6
20.02.2018 11:00:00 4,0 1,4 5 3 11 6 E 1019,4 4,8
20.02.2018 10:00:00 2,9 0,7 2 1 - - - 1019,1 4,7
20.02.2018 09:00:00 2,6 0,9 4 2 4 2 - 1018,9 2,6
20.02.2018 08:00:00 2,3 0,8 2 1 15 8 SE 1018,9 2,5
20.02.2018 07:00:00 2,4 0,8 11 6 - - E 1018,4 3,0
20.02.2018 06:00:00 2,5 0,7 4 2 15 8 E 1017,9 3,5
20.02.2018 05:00:00 2,7 0,9 8 4 11 6 E 1017,8 3,5
20.02.2018 04:00:00 2,8 0,9 8 4 - - E 1017,6 4,0
20.02.2018 03:00:00 2,8 1,2 9 5 14 8 E 1017,4 3,5
20.02.2018 02:00:00 2,8 1,2 8 4 14 8 SE 1017,2 3,2
20.02.2018 01:00:00 2,9 1,4 11 6 - - SE 1017,3 2,5
20.02.2018 00:00:00 2,9 1,5 11 6 18 10 SE 1016,9 1,8
19.02.2018 23:00:00 3,1 1,7 11 6 18 10 SE 1016,6 2,2
19.02.2018 22:00:00 3,2 1,6 13 7 - - SSE 1016,5 2,5

tt = Température de l'air
td = dewpoint
ff = Vitesse du vent
fx = gusts
dd = Direction du vent
ppp = reduced air pressure
vv = visibility

stations d'obs. à proximité